カタログに戻る

CZ-4C DEB

運用中SSO
NORAD 35251·DEBRIS·🇨🇳 China

打ち上げ Nov 11, 2007 から Taiyuan Satellite Launch Center

Loading…

次のパス (今後24時間)

TLE

最新Source: Space-Track

元期: Sep 14, 2026, 06:23 UTC

1 35251U 07055F   26257.26622012  .00004656  00000-0  66145-3 0  9992
2 35251  97.9206 191.4239 0136186 307.3034  51.5823 14.71202316990879

AllMySatでCZ-4C DEBをリアルタイム追跡

Download on the App Store